Location: ???? ????
(41.4149°N, 22.8816°E)
Time: 11:28:09
(UTC+00:00)

Okean 3 - Pass Details

Date: 14 July 2020
Orbit: 576 x 601 km, 82.5° (Epoch: 09 August)

Event Time Altitude Azimuth Distance (km) Brightness Sun altitude
Rises 00:14:53 0° 356° (N) 2,803 7.9 -22.8°
Reaches altitude 10° 00:17:07 10° 1° (N) 1,901 7.0 -22.6°
Maximum altitude 00:21:14 56° 80° (E) 694 3.9 -22.3°
Enters shadow 00:22:19 42° 132° (SE) 836 4.0 -22.2°
